EW8567 Weather Reports


Display with metric or nautical units.
time (UTC)temp
F
wind
direction
speed
MPH
gust
MPH
rain 1hr
in
rain 24hr
in
rain mn
in
humidity
%
barometer
mb
20260503050009 51 273 7.0 16.0 0.00 0.00 0.00 44 1021.5
20260503045506 51 274 7.0 16.0 0.00 0.00 0.00 42 1021.6
20260503045009 51 271 5.0 15.0 0.00 0.00 0.00 42 1021.6
20260503044505 51 267 5.0 15.0 0.00 0.00 0.00 44 1021.7
20260503044009 51 257 4.0 8.0 0.00 0.00 0.00 44 1021.8
20260503043506 51 254 4.0 9.0 0.00 0.00 0.00 43 1021.8
20260503043009 51 233 5.0 11.0 0.00 0.00 0.00 42 1021.8
20260503042505 51 234 5.0 11.0 0.00 0.00 0.00 44 1021.9
20260503042009 50 245 5.0 11.0 0.00 0.00 0.00 44 1021.8
20260503041506 50 243 4.0 9.0 0.00 0.00 0.00 43 1022.0
20260503041009 50 241 5.0 11.0 0.00 0.00 0.00 44 1021.9
20260503040505 50 238 5.0 11.0 0.00 0.00 0.00 44 1022.0
20260503040009 50 249 4.0 11.0 0.00 0.00 0.00 45 1022.1
20260503035506 49 252 5.0 13.0 0.00 0.00 0.00 48 1022.2
20260503035009 49 249 5.0 13.0 0.00 0.00 0.00 48 1022.0
20260503034505 49 258 4.0 7.0 0.00 0.00 0.00 51 1022.0
20260503034008 48 258 3.0 6.0 0.00 0.00 0.00 54 1022.0
20260503033505 48 240 3.0 7.0 0.00 0.00 0.00 52 1022.0
20260503033010 47 247 4.0 9.0 0.00 0.00 0.00 52 1022.0
20260503032505 47 255 3.0 9.0 0.00 0.00 0.00 52 1022.0
20260503032008 46 242 3.0 9.0 0.00 0.00 0.00 53 1022.0
20260503031505 46 237 3.0 9.0 0.00 0.00 0.00 55 1022.0
20260503031009 46 257 2.0 7.0 0.00 0.00 0.00 55 1022.0
20260503030505 45 269 3.0 7.0 0.00 0.00 0.00 59 1022.0
20260503030009 44 270 2.0 4.0 0.00 0.00 0.00 58 1022.0
20260503025506 44 275 3.0 6.0 0.00 0.00 0.00 59 1022.0
20260503025008 43 277 3.0 6.0 0.00 0.00 0.00 60 1022.0
20260503024505 43 279 3.0 6.0 0.00 0.00 0.00 60 1021.8
20260503024009 42 272 3.0 6.0 0.00 0.00 0.00 60 1021.9
20260503023506 42 265 2.0 4.0 0.00 0.00 0.00 62 1021.8
20260503023009 41 268 2.0 4.0 0.00 0.00 0.00 61 1021.7
20260503022505 40 297 1.0 2.0 0.00 0.00 0.00 64 1021.9
20260503022009 39 358 0.0 2.0 0.00 0.00 0.00 67 1021.7
20260503021505 39 1 0.0 2.0 0.00 0.00 0.00 71 1021.8
20260503021008 38 0 0.0 0.0 0.00 0.00 0.00 69 1021.6
20260503020505 40 0 0.0 0.0 0.00 0.00 0.00 67 1021.6
20260503020009 40 0 0.0 0.0 0.00 0.00 0.00 69 1021.7
20260503015506 39 0 0.0 0.0 0.00 0.00 0.00 72 1021.7
20260503015009 38 0 0.0 0.0 0.00 0.00 0.00 73 1021.7
20260503014506 37 0 0.0 0.0 0.00 0.00 0.00 74 1021.5
20260503014008 37 0 0.0 0.0 0.00 0.00 0.00 74 1021.5
20260503013505 35 0 0.0 0.0 0.00 0.00 0.00 80 1021.5
20260503013009 34 0 0.0 0.0 0.00 0.00 0.00 82 1021.5
20260503012505 33 0 0.0 0.0 0.00 0.00 0.00 81 1021.5
20260503012009 33 0 0.0 0.0 0.00 0.00 0.00 83 1021.4
20260503011506 31 0 0.0 0.0 0.00 0.00 0.00 87 1021.4
20260503011009 29 0 0.0 0.0 0.00 0.00 0.00 87 1021.5
20260503010505 29 1 0.0 2.0 0.00 0.00 0.00 88 1021.5
20260503010010 29 1 0.0 2.0 0.00 0.00 0.00 89 1021.4
20260503005505 29 0 0.0 0.0 0.00 0.00 0.00 89 1021.3
20260503005008 28 0 0.0 0.0 0.00 0.00 0.00 90 1021.3
20260503004506 28 0 0.0 0.0 0.00 0.00 0.00 90 1021.3
20260503004008 27 0 0.0 0.0 0.00 0.00 0.00 91 1021.2
20260503003506 27 0 0.0 0.0 0.00 0.00 0.00 91 1021.2
20260503003008 27 0 0.0 0.0 0.00 0.00 0.00 91 1021.1
20260503002506 27 0 0.0 0.0 0.00 0.00 0.00 91 1021.0
20260503002008 27 0 0.0 0.0 0.00 0.00 0.00 91 1020.8
20260503001506 27 0 0.0 0.0 0.00 0.00 0.00 91 1020.8
20260503001009 27 0 0.0 0.0 0.00 0.00 0.00 91 1020.9
20260503000506 27 0 0.0 0.0 0.00 0.00 0.00 91 1020.8
20260503000009 27 0 0.0 0.0 0.00 0.00 0.00 91 1020.8
20260502235505 27 0 0.0 0.0 0.00 0.00 0.00 91 1020.7
20260502235008 27 0 0.0 0.0 0.00 0.00 0.00 91 1020.8
20260502234505 27 0 0.0 0.0 0.00 0.00 0.00 91 1020.7
20260502234009 27 0 0.0 0.0 0.00 0.00 0.00 90 1020.8
20260502233506 28 0 0.0 0.0 0.00 0.00 0.00 90 1020.8
20260502233008 28 0 0.0 0.0 0.00 0.00 0.00 90 1020.8
20260502232506 28 0 0.0 0.0 0.00 0.00 0.00 90 1020.6
20260502232009 28 0 0.0 0.0 0.00 0.00 0.00 90 1020.7
20260502231506 28 0 0.0 0.0 0.00 0.00 0.00 90 1020.6
20260502231008 28 0 0.0 0.0 0.00 0.00 0.00 90 1020.6
20260502230505 28 0 0.0 0.0 0.00 0.00 0.00 90 1020.7
20260502230009 28 0 0.0 0.0 0.00 0.00 0.00 90 1020.6
20260502225505 28 0 0.0 0.0 0.00 0.00 0.00 90 1020.8
20260502225009 28 0 0.0 0.0 0.00 0.00 0.00 90 1020.7
20260502224506 28 0 0.0 0.0 0.00 0.00 0.00 90 1020.7
20260502224009 29 0 0.0 0.0 0.00 0.00 0.00 89 1020.8
20260502223505 29 0 0.0 0.0 0.00 0.00 0.00 89 1020.8
20260502223009 29 0 0.0 0.0 0.00 0.00 0.00 89 1020.8
20260502222505 29 0 0.0 0.0 0.00 0.00 0.00 89 1020.7
20260502222009 29 0 0.0 0.0 0.00 0.00 0.00 89 1020.7
20260502221505 29 0 0.0 0.0 0.00 0.00 0.00 89 1020.6
20260502221009 29 0 0.0 0.0 0.00 0.00 0.00 89 1020.6
20260502220505 30 1 0.0 2.0 0.00 0.00 0.00 89 1020.7
20260502220009 30 1 0.0 2.0 0.00 0.00 0.00 89 1020.5
20260502215506 30 1 0.0 2.0 0.00 0.00 0.00 89 1020.8
20260502215008 30 0 0.0 0.0 0.00 0.00 0.00 88 1020.8
20260502214506 30 0 0.0 0.0 0.00 0.00 0.00 88 1020.6
20260502214009 30 1 0.0 2.0 0.00 0.00 0.00 88 1020.6
20260502213506 30 1 0.0 2.0 0.00 0.00 0.00 88 1020.7
20260502213009 30 1 0.0 2.0 0.00 0.00 0.00 88 1020.6
20260502212505 30 1 0.0 2.0 0.00 0.00 0.00 89 1020.5
20260502212008 31 1 0.0 2.0 0.00 0.00 0.00 89 1020.6
20260502211505 31 1 0.0 2.0 0.00 0.00 0.00 88 1020.5
20260502211008 31 1 0.0 2.0 0.00 0.00 0.00 88 1020.6
20260502210506 30 0 0.0 0.0 0.00 0.00 0.00 87 1020.6
20260502210009 31 0 0.0 0.0 0.00 0.00 0.00 87 1020.6
20260502205507 31 0 0.0 0.0 0.00 0.00 0.00 87 1020.5
20260502205009 31 0 0.0 0.0 0.00 0.00 0.00 86 1020.5
20260502204506 32 0 0.0 0.0 0.00 0.00 0.00 86 1020.6
20260502204009 32 0 0.0 0.0 0.00 0.00 0.00 85 1020.4
20260502203505 33 1 0.0 2.0 0.00 0.00 0.00 84 1020.4
20260502203009 33 1 0.0 2.0 0.00 0.00 0.00 84 1020.3
20260502202505 33 1 0.0 2.0 0.00 0.00 0.00 87 1020.3
20260502201506 32 1 0.0 2.0 0.00 0.00 0.00 89 1020.0
20260502200505 33 1 0.0 2.0 0.00 0.00 0.00 89 1020.1
20260502194505 33 1 0.0 2.0 0.00 0.00 0.00 87 1019.7
20260502194008 32 0 0.0 0.0 0.00 0.00 0.00 86 1019.7
20260502193505 33 0 0.0 0.0 0.00 0.00 0.00 85 1019.7
20260502192009 34 0 0.0 0.0 0.00 0.00 0.00 86 1019.6
20260502191505 34 0 0.0 0.0 0.00 0.00 0.00 86 1019.4
20260502190505 34 1 0.0 2.0 0.00 0.00 0.00 85 1019.4
20260502190009 35 1 0.0 2.0 0.00 0.00 0.00 85 1019.3
20260502185506 35 0 0.0 0.0 0.00 0.00 0.00 83 1019.3
20260502184505 35 0 0.0 0.0 0.00 0.00 0.00 81 1019.1
20260502184008 36 292 0.0 2.0 0.00 0.00 0.00 80 1019.1
20260502183505 36 292 0.0 2.0 0.00 0.00 0.00 80 1019.0
20260502182010 36 292 0.0 2.0 0.00 0.00 0.00 80 1019.1
20260502180506 38 0 0.0 0.0 0.00 0.00 0.00 79 1018.8
20260502164009 42 270 0.0 2.0 0.00 0.00 0.00 70 1017.7
20260502163505 42 270 0.0 2.0 0.00 0.00 0.00 69 1017.7
20260502163009 43 270 0.0 2.0 0.00 0.00 0.00 69 1017.7
20260502161506 43 0 0.0 0.0 0.00 0.00 0.00 68 1017.6
20260502160506 44 270 0.0 2.0 0.00 0.01 0.00 68 1017.3
20260502152009 47 254 1.0 2.0 0.00 0.06 0.00 62 1016.7
20260502150506 49 279 3.0 6.0 0.00 0.07 0.00 60 1016.7
20260502130505 51 268 7.0 14.0 0.00 0.13 0.00 55 1016.3
20260502123505 52 238 4.0 8.0 0.00 0.14 0.00 58 1016.2
20260502123009 52 245 3.0 7.0 0.00 0.15 0.00 57 1016.2
20260502122505 53 242 3.0 9.0 0.00 0.15 0.00 59 1016.1
20260502122008 52 244 4.0 11.0 0.00 0.15 0.00 57 1016.1
20260502121505 52 249 4.0 11.0 0.00 0.15 0.00 57 1016.3
20260502121008 52 265 4.0 9.0 0.00 0.17 0.00 58 1016.2
20260502120505 52 274 5.0 11.0 0.00 0.17 0.00 59 1016.2
20260502115505 50 288 6.0 13.0 0.00 0.18 0.00 59 1016.3
20260502115009 49 292 8.0 21.0 0.00 0.18 0.00 59 1016.3
20260502114505 49 285 11.0 25.0 0.00 0.20 0.00 60 1016.2
20260502114009 50 277 10.0 25.0 0.00 0.20 0.00 58 1015.9
20260502113505 52 279 7.0 14.0 0.00 0.21 0.00 56 1015.7
20260502113008 52 285 7.0 13.0 0.00 0.21 0.00 55 1015.5
20260502112506 52 275 6.0 11.0 0.00 0.22 0.00 55 1015.6
20260502112008 52 272 5.0 13.0 0.00 0.24 0.00 55 1015.6
20260502111506 52 282 5.0 13.0 0.00 0.24 0.00 54 1015.6
20260502111008 52 295 5.0 14.0 0.00 0.25 0.00 54 1015.6
20260502110506 52 297 6.0 14.0 0.00 0.25 0.00 54 1015.5
20260502110008 52 283 6.0 11.0 0.00 0.26 0.00 53 1015.6
20260502105505 54 271 6.0 14.0 0.00 0.26 0.00 54 1015.6
20260502105009 54 258 7.0 14.0 0.00 0.27 0.00 52 1015.5
20260502104505 54 273 6.0 11.0 0.00 0.27 0.00 53 1015.6
20260502104009 54 301 6.0 15.0 0.00 0.28 0.00 55 1015.5
20260502103505 54 302 6.0 15.0 0.00 0.30 0.00 53 1015.5
20260502103008 54 295 7.0 15.0 0.00 0.31 0.00 51 1015.4
20260502102505 53 286 7.0 13.0 0.00 0.31 0.00 51 1015.4
20260502102009 53 281 6.0 13.0 0.00 0.32 0.00 50 1015.4
20260502101505 53 281 7.0 14.0 0.00 0.33 0.00 54 1015.3
20260502101009 53 294 7.0 14.0 0.00 0.33 0.00 52 1015.3
20260502100505 53 300 5.0 13.0 0.00 0.34 0.00 54 1015.3
20260502091505 51 272 6.0 11.0 0.00 0.40 0.00 60 1015.2
20260502091009 53 284 7.0 15.0 0.00 0.41 0.00 61 1015.3
20260502090505 52 286 7.0 15.0 0.00 0.41 0.00 62 1015.3
20260502071505 50 266 4.0 11.0 0.00 0.57 0.00 66 1014.9
20260502071009 50 261 4.0 8.0 0.00 0.58 0.00 65 1014.9
20260502070505 50 256 3.0 8.0 0.00 0.58 0.00 64 1014.9
20260502070008 48 293 3.0 7.0 0.00 0.59 0.00 64 1014.9
20260502065505 47 294 4.0 8.0 0.00 0.59 0.00 66 1015.0
20260502065009 47 284 4.0 9.0 0.00 0.59 0.00 67 1015.0
20260502064506 47 291 4.0 9.0 0.00 0.60 0.00 67 1015.0
20260502064009 48 290 4.0 11.0 0.00 0.61 0.00 69 1014.8
20260502063505 48 296 4.0 11.0 0.00 0.63 0.00 67 1014.8
20260502063008 47 291 4.0 11.0 0.00 0.63 0.00 64 1014.8
20260502062505 49 314 3.0 11.0 0.00 0.64 0.00 64 1014.8
20260502062009 49 317 4.0 14.0 0.00 0.65 0.00 64 1014.8
20260502061505 49 305 5.0 14.0 0.00 0.65 0.00 67 1014.9
20260502061009 49 306 4.0 9.0 0.00 0.65 0.00 71 1014.8
20260502060505 48 278 4.0 9.0 0.00 0.65 0.00 74 1014.7
20260502060009 46 287 5.0 9.0 0.00 0.66 0.00 75 1014.7
20260502055506 46 300 5.0 11.0 0.00 0.67 0.00 73 1014.7
20260502055009 46 297 6.0 13.0 0.00 0.67 0.00 73 1014.7
20260502054505 46 298 6.0 13.0 0.00 0.67 0.00 72 1014.8
20260502054009 47 296 6.0 11.0 0.00 0.69 0.00 72 1014.6
20260502053505 47 286 5.0 11.0 0.00 0.70 0.00 70 1014.5
20260502053008 48 285 4.0 8.0 0.00 0.70 0.00 74 1014.5
20260502052505 48 292 4.0 11.0 0.00 0.71 0.00 73 1014.5
20260502052009 47 291 5.0 11.0 0.00 0.71 0.00 73 1014.5
20260502051505 47 293 5.0 11.0 0.00 0.72 0.00 72 1014.3
20260502051008 47 296 6.0 11.0 0.00 0.72 0.00 72 1014.3
20260502050505 46 296 6.0 11.0 0.00 0.72 0.00 74 1014.3